• In Germany
  • List of Countries
  • For 7 days
  • Water Temperature
  • Satellite Maps
  • Weather Map
  • Weather Widgets
  • user-avatar
    Login

    Hourly Weather Megri

    Today, 24 April, Tuesday

    Time Temperature Precipitation Wind Pressure Humidity
    00:00 +6°C° 0 mm 2 mps 619 mmHg 53%
    01:00 +7°C° 0 mm 1 mps 619 mmHg 54%
    02:00 +7°C° 0 mm 1 mps 619 mmHg 56%
    03:00 +6°C° 0 mm 2 mps 620 mmHg 55%
    04:00 +6°C° 0 mm 2 mps 620 mmHg 57%
    05:00 +6°C° 0 mm 2 mps 620 mmHg 59%
    06:00 +7°C° 0 mm 1 mps 621 mmHg 61%
    07:00 +8°C° 0 mm 2 mps 621 mmHg 56%
    08:00 +9°C° 0 mm 2 mps 622 mmHg 51%
    09:00 +11°C° 0 mm 3 mps 623 mmHg 45%
    10:00 +12°C° 0 mm 3 mps 623 mmHg 42%
    11:00 +13°C° 0 mm 3 mps 624 mmHg 39%
    12:00 +14°C° 0 mm 4 mps 624 mmHg 35%
    13:00 +14°C° 0 mm 4 mps 624 mmHg 34%
    14:00 +15°C° 0 mm 4 mps 624 mmHg 33%
    15:00 +15°C° 0 mm 4 mps 624 mmHg 32%
    16:00 +14°C° 0 mm 3 mps 624 mmHg 35%
    17:00 +15°C° 0 mm 2 mps 624 mmHg 37%
    18:00 +14°C° 0 mm 2 mps 624 mmHg 40%
    19:00 +13°C° 0 mm 2 mps 624 mmHg 46%
    20:00 +12°C° 0 mm 2 mps 624 mmHg 52%
    21:00 +9°C° 0 mm 2 mps 624 mmHg 59%
    22:00 +9°C° 0 mm 2 mps 624 mmHg 62%
    23:00 +8°C° 0 mm 2 mps 624 mmHg 65%

    Tomorrow, 25 April, Wednesday

    Time Temperature Precipitation Wind Pressure Humidity
    00:00 +8°C° 0 mm 2 mps 624 mmHg 68%
    01:00 +8°C° 0 mm 2 mps 624 mmHg 71%
    02:00 +7°C° 0 mm 2 mps 623 mmHg 73%
    03:00 +7°C° 0 mm 2 mps 623 mmHg 76%
    04:00 +7°C° 0 mm 2 mps 623 mmHg 76%
    05:00 +7°C° 0 mm 2 mps 624 mmHg 77%
    06:00 +7°C° 0 mm 2 mps 624 mmHg 77%
    07:00 +9°C° 0 mm 2 mps 624 mmHg 67%
    08:00 +11°C° 0 mm 1 mps 625 mmHg 57%
    09:00 +13°C° 0 mm 1 mps 625 mmHg 47%
    10:00 +14°C° 0 mm 1 mps 626 mmHg 42%
    11:00 +16°C° 0 mm 1 mps 626 mmHg 37%
    12:00 +18°C° 0 mm 1 mps 626 mmHg 32%
    13:00 +18°C° 0 mm 1 mps 626 mmHg 31%
    14:00 +19°C° 0 mm 1 mps 625 mmHg 30%
    15:00 +19°C° 0 mm 1 mps 625 mmHg 29%
    16:00 +18°C° 0 mm 1 mps 625 mmHg 33%
    17:00 +18°C° 0 mm 1 mps 625 mmHg 36%
    18:00 +16°C° 0 mm 2 mps 624 mmHg 40%
    19:00 +15°C° 0 mm 2 mps 624 mmHg 48%
    20:00 +14°C° 0 mm 2 mps 624 mmHg 56%
    21:00 +12°C° 0 mm 2 mps 624 mmHg 63%
    22:00 +12°C° 0 mm 2 mps 624 mmHg 67%
    23:00 +10°C° 0 mm 2 mps 623 mmHg 71%

    Day after tomorrow, 26 April, Thursday

    Time Temperature Precipitation Wind Pressure Humidity
    00:00 +10°C° 0 mm 2 mps 623 mmHg 75%
    01:00 +9°C° 0 mm 2 mps 623 mmHg 76%
    02:00 +9°C° 0 mm 2 mps 623 mmHg 76%
    03:00 +9°C° 0 mm 2 mps 623 mmHg 76%
    04:00 +9°C° 0 mm 2 mps 623 mmHg 75%
    05:00 +9°C° 0 mm 2 mps 623 mmHg 74%
    06:00 +9°C° 0 mm 2 mps 624 mmHg 73%
    07:00 +12°C° 0 mm 2 mps 624 mmHg 65%
    08:00 +13°C° 0 mm 2 mps 625 mmHg 56%
    09:00 +15°C° 0 mm 2 mps 626 mmHg 48%
    10:00 +16°C° 0 mm 2 mps 626 mmHg 45%
    11:00 +17°C° 0 mm 2 mps 626 mmHg 41%
    12:00 +18°C° 0 mm 2 mps 626 mmHg 37%
    13:00 +19°C° 0.1 mm 2 mps 626 mmHg 36%
    14:00 +19°C° 0.1 mm 2 mps 625 mmHg 35%
    15:00 +19°C° 0.1 mm 2 mps 625 mmHg 34%
    16:00 +18°C° 0.4 mm 2 mps 625 mmHg 38%
    17:00 +18°C° 0.4 mm 2 mps 625 mmHg 43%
    18:00 +17°C° 0.4 mm 3 mps 624 mmHg 47%
    19:00 +14°C° 0.2 mm 3 mps 625 mmHg 53%
    20:00 +13°C° 0.2 mm 3 mps 625 mmHg 60%
    21:00 +12°C° 0.2 mm 3 mps 625 mmHg 67%
    22:00 +11°C° 0 mm 3 mps 624 mmHg 68%
    23:00 +11°C° 0 mm 3 mps 624 mmHg 70%

    27 April, Friday

    Time Temperature Precipitation Wind Pressure Humidity
    00:00 +11°C° 0 mm 3 mps 624 mmHg 71%
    01:00 +10°C° 0 mm 3 mps 624 mmHg 72%
    02:00 +10°C° 0 mm 2 mps 623 mmHg 72%
    03:00 +10°C° 0 mm 2 mps 623 mmHg 72%
    04:00 +10°C° 0 mm 2 mps 623 mmHg 71%
    05:00 +10°C° 0 mm 3 mps 624 mmHg 70%
    06:00 +10°C° 0 mm 3 mps 624 mmHg 69%
    07:00 +12°C° 0.1 mm 3 mps 624 mmHg 62%
    08:00 +13°C° 0.1 mm 3 mps 625 mmHg 56%
    09:00 +14°C° 0.1 mm 3 mps 625 mmHg 50%
    10:00 +17°C° 0 mm 3 mps 625 mmHg 46%
    11:00 +18°C° 0 mm 3 mps 625 mmHg 43%
    12:00 +19°C° 0 mm 3 mps 625 mmHg 39%
    13:00 +18°C° 0.9 mm 3 mps 624 mmHg 44%
    14:00 +17°C° 0.9 mm 3 mps 624 mmHg 50%
    15:00 +16°C° 0.9 mm 3 mps 623 mmHg 55%
    16:00 +14°C° 0.8 mm 3 mps 623 mmHg 60%
    17:00 +13°C° 0.8 mm 3 mps 623 mmHg 64%
    18:00 +12°C° 0.8 mm 3 mps 623 mmHg 69%
    19:00 +12°C° 0.7 mm 3 mps 623 mmHg 72%
    20:00 +13°C° 0.7 mm 2 mps 623 mmHg 74%
    21:00 +12°C° 0.7 mm 2 mps 623 mmHg 77%
    22:00 +12°C° 0.2 mm 2 mps 622 mmHg 77%
    23:00 +12°C° 0.2 mm 2 mps 622 mmHg 78%

    28 April, Saturday

    Time Temperature Precipitation Wind Pressure Humidity
    00:00 +12°C° 0.2 mm 1 mps 622 mmHg 79%
    01:00 +11°C° 0.1 mm 1 mps 622 mmHg 80%
    02:00 +11°C° 0.1 mm 1 mps 621 mmHg 80%
    03:00 +11°C° 0.1 mm 1 mps 621 mmHg 81%
    04:00 +11°C° 0 mm 1 mps 621 mmHg 80%
    05:00 +11°C° 0 mm 1 mps 621 mmHg 79%
    06:00 +11°C° 0 mm 1 mps 621 mmHg 79%
    07:00 +12°C° 0.1 mm 1 mps 621 mmHg 72%
    08:00 +13°C° 0.1 mm 1 mps 622 mmHg 66%
    09:00 +14°C° 0.1 mm 1 mps 623 mmHg 59%
    10:00 +15°C° 0.3 mm 1 mps 623 mmHg 56%
    11:00 +16°C° 0.3 mm 1 mps 623 mmHg 53%
    12:00 +16°C° 0.3 mm 1 mps 623 mmHg 50%
    13:00 +18°C° 0.8 mm 1 mps 623 mmHg 49%
    14:00 +17°C° 0.8 mm 2 mps 623 mmHg 48%
    15:00 +17°C° 0.8 mm 2 mps 623 mmHg 47%
    16:00 +16°C° 0.7 mm 2 mps 623 mmHg 51%
    17:00 +16°C° 0.7 mm 2 mps 622 mmHg 55%
    18:00 +15°C° 0.7 mm 2 mps 622 mmHg 60%
    19:00 +14°C° 0.6 mm 2 mps 623 mmHg 64%
    20:00 +13°C° 0.6 mm 2 mps 623 mmHg 69%
    21:00 +11°C° 0.6 mm 3 mps 623 mmHg 74%
    22:00 +11°C° 0.2 mm 3 mps 623 mmHg 76%
    23:00 +12°C° 0.2 mm 2 mps 623 mmHg 78%

    29 April, Sunday

    Time Temperature Precipitation Wind Pressure Humidity
    00:00 +10°C° 0.2 mm 2 mps 623 mmHg 79%
    01:00 +10°C° 0.1 mm 2 mps 623 mmHg 80%
    02:00 +10°C° 0.1 mm 2 mps 623 mmHg 81%
    03:00 +10°C° 0.1 mm 2 mps 623 mmHg 81%
    04:00 +10°C° 0.1 mm 2 mps 623 mmHg 80%
    05:00 +10°C° 0.1 mm 2 mps 624 mmHg 80%
    06:00 +10°C° 0.1 mm 2 mps 624 mmHg 79%
    07:00 +11°C° 0.1 mm 3 mps 624 mmHg 71%
    08:00 +12°C° 0.1 mm 3 mps 625 mmHg 64%
    09:00 +13°C° 0.1 mm 4 mps 626 mmHg 56%
    10:00 +14°C° 0 mm 4 mps 626 mmHg 54%
    11:00 +14°C° 0 mm 4 mps 626 mmHg 52%
    12:00 +15°C° 0 mm 4 mps 626 mmHg 49%
    13:00 +15°C° 0.2 mm 4 mps 625 mmHg 49%
    14:00 +15°C° 0.2 mm 4 mps 625 mmHg 49%
    15:00 +17°C° 0.2 mm 4 mps 625 mmHg 49%
    16:00 +15°C° 0.1 mm 4 mps 625 mmHg 53%
    17:00 +14°C° 0.1 mm 4 mps 625 mmHg 56%
    18:00 +14°C° 0.1 mm 4 mps 624 mmHg 60%
    19:00 +13°C° 0 mm 4 mps 625 mmHg 65%
    20:00 +12°C° 0 mm 3 mps 625 mmHg 69%
    21:00 +11°C° 0 mm 3 mps 625 mmHg 74%
    22:00 +10°C° 0 mm 3 mps 625 mmHg 76%
    23:00 +10°C° 0 mm 3 mps 625 mmHg 77%
    Show more